Home   Weather   Busan   Past weeks

Flag for South Korea Past Weather in Busan, South Korea — Yesterday and Last 2 Weeks

61 °F


Feels Like: 61 °F
Forecast: 58 / 69 °F
Wind: 1 mph from West

Location: Pusan / Kimhae International Airport

Current Time: Oct 26, 2016 at 10:33:26 PM

Latest Report: Oct 26, 2016 at 10:00 PM

Visibility: 10 mi

Pressure: 30.09 "Hg

Humidity: 63%

Dew Point: 48 °F

Location of BusanLocation

Past Weather in Busan — Graph


Busan Temperature Yesterday

Maximum temperature yesterday: 72 °F (at 4:00 PM)
Minimum temperature yesterday: 55 °F (at 7:00 AM)
Average temperature yesterday: 63 °F

High & Low Weather Summary for the Past Weeks

High77 °F (Oct 17, 1:00 PM)100% (Oct 16, 10:00 AM)30.33 "Hg (Oct 16, 10:00 AM)
Low54 °F (Oct 14, 7:00 AM)39% (Oct 12, 3:00 PM)29.80 "Hg (Oct 25, 2:00 PM)
Average64 °F74%30.08 "Hg
* Reported Oct 11 9:00 PM — Oct 26 9:00 PM, Busan, Weather by CustomWeather, © 2016

Note: Actual official high and low records may vary slightly from our data, if they occured in-between our weather recording intervals... More about our weather records


Busan Weather History for the Previous 24 Hours

Scroll right to see more
Time TempWeatherWind HumidityBarometerVisibility
9:00 PM
Wed, Oct 26
63 °FClear.5 mph64%30.09 "Hg10 mi
8:00 PM64 °FLight rain. Partly cloudy.5 mph68%30.09 "HgN/A
7:00 PM64 °FClear.5 mph64%30.09 "Hg10 mi
6:00 PM66 °FClear.8 mph60%30.07 "Hg10 mi
5:00 PM66 °FLight rain. Mostly cloudy.6 mph56%30.07 "HgN/A
4:00 PM68 °FSunny.7 mph60%30.04 "Hg10 mi
3:00 PM70 °FSunny.6 mph57%30.01 "Hg10 mi
2:00 PM68 °FSunny.8 mph60%30.01 "Hg10 mi
1:00 PM68 °FPartly sunny.8 mph60%30.01 "HgN/A
12:00 PM68 °FBroken clouds.8 mph64%30.04 "Hg6 mi
11:00 AM64 °FClear.5 mph73%30.04 "Hg6 mi
10:00 AM59 °FScattered clouds.9 mph77%30.07 "Hg4 mi
9:00 AM61 °FPassing clouds.3 mph88%30.07 "Hg4 mi
8:00 AM57 °FPassing clouds.1 mph94%30.04 "Hg5 mi
7:00 AM57 °FScattered clouds.2 mph94%30.04 "Hg5 mi
6:00 AM57 °FPassing clouds.2 mph88%30.04 "Hg5 mi
5:00 AM57 °FPassing clouds.3 mph88%30.01 "Hg5 mi
4:00 AM57 °FPassing clouds.3 mph94%30.01 "Hg5 mi
3:00 AM55 °FPassing clouds.1 mph100%30.01 "Hg5 mi
2:00 AM57 °FPassing clouds.3 mph100%30.01 "Hg5 mi
1:00 AM57 °FClear.2 mph100%29.98 "Hg5 mi
12:00 AM59 °FClear.1 mph94%29.98 "Hg6 mi
11:00 PM
Tue, Oct 25
59 °FPassing clouds.1 mph94%29.98 "HgN/A
10:00 PM63 °FPassing clouds.5 mph94%29.98 "HgN/A
Weather by CustomWeather, © 2016

See weather overviewHow to use our weather pages